EW3904 Weather Reports


Display with metric or nautical units.
time (UTC)temp
F
wind
direction
speed
MPH
gust
MPH
rain 1hr
in
rain 24hr
in
rain mn
in
humidity
%
barometer
mb
20260503035235 49 279 0.0 0.0 0.00 0.13 0.13 74 1016.1
20260503034204 50 279 0.0 2.0 0.00 0.13 0.13 74 1016.1
20260503033234 50 279 1.0 2.0 0.00 0.13 0.13 75 1016.1
20260503032235 50 279 0.0 1.0 0.00 0.13 0.13 73 1016.1
20260503031234 50 279 0.0 0.0 0.00 0.13 0.13 71 1016.1
20260503030234 51 279 0.0 1.0 0.00 0.13 0.13 71 1016.1
20260503025234 51 279 1.0 2.0 0.00 0.13 0.13 72 1015.7
20260503024234 51 279 1.0 2.0 0.00 0.13 0.13 71 1015.7
20260503023234 53 315 1.0 1.0 0.00 0.13 0.13 64 1015.7
20260503022234 53 315 0.0 1.0 0.00 0.13 0.13 63 1015.4
20260503021234 55 316 0.0 0.0 0.00 0.13 0.13 59 1015.3
20260503014234 57 325 0.0 0.0 0.00 0.13 0.13 49 1014.8
20260503013234 58 325 0.0 2.0 0.00 0.13 0.13 48 1014.7
20260503012234 58 334 0.0 2.0 0.00 0.13 0.13 48 1014.5
20260503011233 59 320 1.0 3.0 0.00 0.13 0.13 45 1014.4
20260503010233 59 346 1.0 3.0 0.00 0.13 0.13 45 1014.2
20260503005203 60 315 1.0 3.0 0.00 0.13 0.13 43 1014.0
20260503003233 61 355 4.0 7.0 0.00 0.13 0.13 41 1013.9
20260503002233 62 341 3.0 8.0 0.00 0.13 0.13 40 1013.6
20260503001203 62 338 4.0 10.0 0.00 0.13 0.13 38 1013.4
20260503000234 63 337 4.0 9.0 0.00 0.13 0.13 38 1013.4
20260502235233 64 350 4.0 16.0 0.00 0.13 0.13 36 1013.1
20260502234233 64 297 8.0 14.0 0.00 0.13 0.13 33 1013.0
20260502233233 65 16 6.0 16.0 0.00 0.13 0.13 32 1012.8
20260502232233 65 336 7.0 14.0 0.00 0.13 0.13 30 1012.9
20260502231202 66 17 8.0 14.0 0.00 0.13 0.13 33 1012.6
20260502225233 67 360 7.0 15.0 0.00 0.13 0.13 34 1012.4
20260502224232 67 351 10.0 15.0 0.00 0.13 0.13 32 1012.4
20260502223233 68 304 9.0 17.0 0.00 0.13 0.13 31 1012.4
20260502222233 68 347 10.0 17.0 0.00 0.13 0.13 32 1012.2
20260502221233 68 339 11.0 15.0 0.00 0.13 0.13 35 1012.1
20260502220232 69 306 10.0 14.0 0.00 0.13 0.13 34 1012.1
20260502214232 69 334 10.0 13.0 0.00 0.13 0.13 35 1011.7
20260502213232 70 323 4.0 16.0 0.00 0.13 0.13 34 1011.7
20260502212232 70 281 5.0 13.0 0.00 0.13 0.13 34 1011.6
20260502211231 70 294 7.0 14.0 0.00 0.13 0.13 36 1011.5
20260502210231 70 305 4.0 12.0 0.00 0.13 0.13 35 1011.4
20260502205232 70 309 10.0 15.0 0.00 0.13 0.13 38 1011.2
20260502204231 71 344 4.0 12.0 0.00 0.13 0.13 40 1011.5
20260502203232 70 320 9.0 14.0 0.00 0.13 0.13 41 1011.2
20260502202231 70 294 10.0 13.0 0.00 0.13 0.13 40 1011.2
20260502201232 69 278 9.0 12.0 0.00 0.13 0.13 45 1011.2
20260502200232 71 336 7.0 10.0 0.00 0.13 0.13 45 1011.3
20260502195231 70 340 11.0 13.0 0.00 0.13 0.13 47 1011.4
20260502194231 69 13 7.0 11.0 0.00 0.13 0.13 48 1011.4
20260502193231 70 331 7.0 11.0 0.00 0.13 0.13 48 1011.4
20260502192231 69 360 4.0 10.0 0.00 0.13 0.13 49 1011.5
20260502191231 71 360 5.0 10.0 0.00 0.13 0.13 48 1011.4
20260502190231 71 316 7.0 11.0 0.00 0.13 0.13 52 1011.5
20260502185231 70 316 8.0 13.0 0.00 0.13 0.13 48 1011.5
20260502184231 71 289 4.0 10.0 0.00 0.13 0.13 50 1011.6
20260502183231 70 295 8.0 12.0 0.00 0.13 0.13 51 1011.7
20260502182231 69 339 4.0 16.0 0.00 0.13 0.13 48 1011.8
20260502181230 69 248 4.0 10.0 0.00 0.13 0.13 53 1011.8
20260502180231 69 23 4.0 11.0 0.00 0.13 0.13 54 1011.9
20260502164230 65 324 3.0 8.0 0.00 0.13 0.13 64 1012.5
20260502163230 65 9 6.0 8.0 0.00 0.13 0.13 65 1012.6
20260502162230 63 30 0.0 8.0 0.00 0.13 0.13 68 1012.6
20260502161230 63 291 4.0 9.0 0.00 0.13 0.13 72 1012.8
20260502151230 59 346 3.0 7.0 0.00 0.13 0.13 80 1012.4
20260502130229 56 340 2.0 3.0 0.01 0.13 0.13 91 1012.2
20260502123229 56 287 4.0 4.0 0.00 0.12 0.12 92 1012.4
20260502122228 56 292 0.0 2.0 0.00 0.12 0.12 92 1011.3
20260502121229 56 24 1.0 2.0 0.00 0.12 0.12 92 1011.0
20260502120229 56 311 2.0 6.0 0.00 0.12 0.12 92 1011.8
20260502115228 56 292 4.0 7.0 0.01 0.12 0.12 94 1012.5
20260502114228 56 309 1.0 4.0 0.01 0.12 0.12 94 1011.3
20260502111228 56 324 3.0 4.0 0.01 0.12 0.12 95 1011.4
20260502110228 56 294 1.0 6.0 0.01 0.12 0.12 95 1011.9
20260502105228 56 281 4.0 8.0 0.00 0.11 0.11 95 1012.5
20260502103228 56 243 4.0 6.0 0.00 0.11 0.11 95 1012.2
20260502102227 56 240 3.0 3.0 0.00 0.11 0.11 95 1011.5
20260502100228 56 219 1.0 4.0 0.01 0.11 0.11 95 1011.0
20260502090227 57 269 2.0 2.0 0.02 0.10 0.10 95 1011.1
20260502071226 57 279 0.0 2.0 0.05 0.07 0.07 94 1011.5
20260502070226 57 279 0.0 2.0 0.05 0.06 0.06 93 1012.0
20260502065226 57 279 0.0 3.0 0.05 0.05 0.05 93 1012.2
20260502064226 57 234 1.0 3.0 0.04 0.04 0.04 93 1012.2
20260502063226 57 200 2.0 4.0 0.03 0.03 0.03 93 1012.4
20260502062226 58 235 2.0 4.0 0.03 0.03 0.03 92 1012.5
20260502061226 58 250 3.0 4.0 0.02 0.02 0.02 92 1012.5
20260502060226 58 242 4.0 4.0 0.01 0.01 0.01 92 1012.5
20260502055226 58 241 1.0 4.0 0.00 0.00 0.00 91 1012.3
20260502054225 58 265 1.0 2.0 0.00 0.00 0.00 91 1012.2
20260502053226 58 246 2.0 3.0 0.00 0.00 0.00 91 1012.6
20260502051225 58 234 0.0 2.0 0.00 0.00 0.00 90 1012.4
20260502050225 58 216 1.0 2.0 0.00 0.00 0.00 91 1012.4
20260502045225 58 239 1.0 1.0 0.00 0.00 0.00 91 1012.6
20260502044225 57 239 0.0 0.0 0.00 0.00 0.00 92 1012.5
20260502043225 57 239 1.0 2.0 0.00 0.00 0.00 90 1012.5
20260502042225 58 238 0.0 1.0 0.00 0.00 0.00 89 1012.7
20260502041225 58 249 1.0 2.0 0.00 0.00 0.00 87 1012.9